Marshfield, WI

6:06 AM CDT on September 16, 2019 (GMT -0500)
Marshfield Municipal

Weather History for KMFI - August, 2019

Change the Weather History Date:

Tuesday, August 20, 2019

  Actual Average Record
Temperature  
Mean Temperature 66 °F -  
Max Temperature 78 °F 77 °F 95 °F (1916)
Min Temperature 55 °F 53 °F 34 °F (1950)
Cooling Degree Days 2    
Growing Degree Days 16 (Base 50)    
Moisture  
Dew Point 60 °F    
Average Humidity 78    
Maximum Humidity 93    
Minimum Humidity 60    
Precipitation  
Precipitation 0.00 in - - ()
Sea Level Pressure  
Sea Level Pressure 29.98 in    
Wind  
Wind Speed 4 mph (West)    
Max Wind Speed 18 mph    
Max Gust Speed 25 mph    
Visibility 10 miles    
Events      
Averages and records for this station are not official NWS values.
T = Trace of Precipitation, MM = Missing Value Source: NWS Daily Summary

Daily Weather History Graph

Daily Weather History Graph

Search for Another Location

Airport or City:

Astronomy

Aug. 20, 2019 Rise Set
Actual Time 6:08 AM CDT 7:58 PM CDT
Civil Twilight 5:37 AM CDT 8:29 PM CDT
Nautical Twilight 4:59 AM CDT 9:07 PM CDT
Astronomical Twilight 4:18 AM CDT 9:48 PM CDT
Moon 10:35 PM CDT (8/20) 10:57 AM CDT (8/20)
Length of Visible Light 14h 52m
Length of Day
13h 49m
Waning Gibbous, 77% of the Moon is Illuminated
Aug 20
Waning Gibbous
Aug 23
Last Quarter
Aug 30
New
Sep 5
First Quarter
Sep 13
Full

Hourly Weather History & Observations

Time (CDT) Temp. Dew Point Humidity Pressure Visibility Wind Dir Wind Speed Gust Speed Precip Events Conditions
12:54 AM 57.9 °F 55.0 °F 90% 30.04 in 10.0 mi Calm Calm - N/A   Clear
1:54 AM 55.9 °F 54.0 °F 93% 30.04 in 8.0 mi Calm Calm - N/A   Clear
2:54 AM 55.9 °F 54.0 °F 93% 30.04 in 10.0 mi Calm Calm - N/A   Clear
3:54 AM 55.0 °F 53.1 °F 93% 30.03 in 10.0 mi Calm Calm - N/A   Clear
4:54 AM 55.0 °F 53.1 °F 93% 29.98 in 10.0 mi East 3.5 mph - N/A   Clear
5:54 AM 55.0 °F 52.0 °F 89% 29.96 in 10.0 mi ENE 4.6 mph - N/A   Clear
6:54 AM 57.0 °F 53.1 °F 87% 29.96 in 10.0 mi Calm Calm - N/A   Clear
7:54 AM 60.1 °F 55.9 °F 86% 29.99 in 10.0 mi South 3.5 mph - N/A   Clear
8:54 AM 64.0 °F 57.9 °F 80% 30.02 in 10.0 mi South 6.9 mph - N/A   Clear
9:54 AM 70.0 °F 60.1 °F 71% 30.01 in 10.0 mi South 12.7 mph - N/A   Clear
10:54 AM 73.9 °F 62.1 °F 66% 30.01 in 10.0 mi Calm Calm - N/A   Clear
11:35 AM 75.9 °F 62.1 °F 62% 30.02 in 10.0 mi NNW 8.1 mph - N/A   Overcast
11:51 AM 73.4 °F 62.6 °F 69% 30.05 in 10.0 mi NNW 13.8 mph - N/A   Overcast
11:54 AM 73.9 °F 62.1 °F 66% 30.04 in 10.0 mi NNW 11.5 mph - N/A   Overcast
12:54 PM 73.9 °F 62.1 °F 66% 30.02 in 10.0 mi NNW 6.9 mph - N/A   Clear
1:54 PM 73.9 °F 63.0 °F 68% 29.89 in 10.0 mi South 18.4 mph 25.3 mph N/A   Clear
2:54 PM 73.9 °F 63.0 °F 68% 29.89 in 10.0 mi North - - N/A   Clear
3:54 PM 75.9 °F 62.1 °F 62% 29.95 in 10.0 mi West 13.8 mph 23.0 mph N/A   Clear
4:54 PM 78.1 °F 63.0 °F 60% 29.95 in 10.0 mi NW 10.4 mph - N/A   Clear
5:54 PM 77.0 °F 62.1 °F 60% 29.95 in 10.0 mi WNW 5.8 mph - N/A   Clear
6:54 PM 75.0 °F 63.0 °F 66% 29.94 in 10.0 mi West 4.6 mph - N/A   Clear
7:54 PM 69.1 °F 64.0 °F 84% 29.94 in 10.0 mi SW 5.8 mph - N/A   Partly Cloudy
8:54 PM 66.9 °F 63.0 °F 87% 29.96 in 10.0 mi Calm Calm - N/A   Partly Cloudy
9:54 PM 69.1 °F 64.0 °F 84% 29.96 in 10.0 mi SW 4.6 mph - N/A   Overcast
10:54 PM 68.0 °F 64.0 °F 87% 29.97 in 10.0 mi Calm Calm - N/A   Overcast
11:54 PM 66.9 °F 64.0 °F 90% 29.96 in 10.0 mi Calm Calm - N/A   Partly Cloudy